Temp
5 5 4 5 5 5 5 6 6 7 9 8 7 9 10 8 11 11 8 14 13 13 11 10 10 11 11 12 11 13 15 16 18 19 20 20 20 20 19 18 19 20 19 17 16
3 3 4 3 4 5 5 5 7 8 6 5 5 4 3 6 9 11 15 13 12 11 10 10 11 11 11 12 12 13 15 17 19 20 19 19 18 18 19 18 18 19 17 15 14
2 2 2 2 2 3 4 3 4 4 4 4 3 3 2 5 7 12 13 14 13 12 9 10 12 12 12 13 13 13 14 18 18 16 17 17 17 16 17 17 19 19 18 16 13
2 2 1 2 1 2 2 3 3 5 7 4 3 2 2 3 11 12 13 13 13 11 9 10 12 12 13 14 13 13 14 16 16 15 15 15 16 17 17 17 18 17 18 18 13
2 2 2 2 1 1 1 2 3 6 6 6 4 2 2 4 8 11 10 10 11 9 9 10 12 12 13 15 15 13 14 14 14 14 13 14 14 15 16 16 16 17 15 15 16
2 2 1 2 1 1 1 2 3 6 7 8 5 2 2 4 10 10 9 8 8 8 9 10 11 12 14 15 15 15 14 14 14 13 13 13 13 14 15 15 16 15 15 15 15
1 1 1 1 1 1 1 3 5 5 7 8 8 5 2 5 8 8 8 7 8 9 9 10 11 12 13 14 14 14 14 14 14 13 13 13 13 13 15 15 15 15 15 15 15
0 0 0 0 0 0 1 3 5 6 6 7 5 3 4 5 5 7 6 6 6 7 8 10 11 11 12 13 14 13 14 12 15 14 14 12 13 17 15 15 15 15 15 15 15
-0 -0 -0 -0 -0 1 1 3 5 5 4 3 3 3 6 5 5 6 6 6 6 7 8 8 9 9 10 10 10 12 12 12 14 15 14 13 13 16 16 16 16 16 16 15 15
-0 -1 -1 -1 1 1 1 3 4 2 3 3 3 3 5 7 6 5 6 6 6 7 7 7 8 8 8 8 8 10 11 13 14 14 14 14 13 16 16 16 17 17 16 16 15
-1 -1 -1 -1 1 1 1 2 2 4 1 1 4 4 4 4 3 4 5 6 6 7 8 8 7 7 9 10 12 14 13 14 14 15 13 13 14 15 16 15 16 16 16 16 16
-1 -0 -1 -1 1 1 0 1 -1 -2 -0 1 1 2 2 3 3 4 5 5 7 6 8 8 6 10 12 12 10 11 11 13 15 15 13 13 13 15 16 16 16 16 16 16 16
0 -0 -1 -1 1 1 0 0 -1 -1 1 2 3 2 2 3 4 5 3 2 5 6 6 7 9 10 11 11 10 10 9 11 12 14 12 12 12 13 15 16 16 15 16 16 16
-0 -1 -1 -2 1 -0 1 -1 -1 -1 1 6 3 1 3 4 5 4 1 0 2 3 6 5 8 10 10 10 12 9 11 11 11 10 9 10 10 14 15 15 16 15 15 15 15
-1 -0 -0 0 -1 -0 -0 -1 -1 -1 1 4 4 3 4 4 4 4 4 2 1 1 3 6 7 8 8 10 12 10 11 10 11 9 10 8 8 13 16 16 17 17 16 15 15
-0 0 -0 -1 -1 -0 -0 -0 -1 0 2 3 4 4 4 4 4 4 4 1 1 2 3 3 7 7 9 11 10 12 12 11 10 9 7 10 10 12 15 16 17 17 17 16 15
-0 0 0 -0 -1 -0 -0 0 1 1 5 2 2 3 3 3 3 3 4 -1 -2 -1 1 3 3 6 6 9 10 9 9 7 7 7 9 11 11 12 16 16 17 17 17 16 15
0 0 -1 -0 -0 -1 -1 3 0 3 2 2 2 3 3 2 2 3 2 -0 -0 -1 1 -1 2 6 7 7 8 10 8 8 8 10 10 13 9 13 16 17 17 16 16 16 16
-0 -1 -1 -0 -1 -1 -0 0 2 1 1 1 1 2 2 2 2 2 0 -1 -1 -1 -3 -1 2 4 4 6 9 8 7 10 8 7 10 13 14 16 16 15 16 16 16 16 15
-2 -1 -0 -0 -1 -2 1 1 1 0 1 1 -0 1 -0 0 0 1 1 0 -1 0 -0 -1 -0 4 5 3 6 8 10 6 6 7 9 12 13 14 14 15 16 16 16 16 15
-1 -0 -0 -1 -1 0 0 0 0 0 -0 -0 -0 -1 -1 -0 0 0 0 1 0 -0 -0 -1 -0 3 4 3 3 5 6 6 8 8 8 11 13 16 15 15 14 14 14 15 15
-2 1 -0 -1 1 1 -0 0 -0 -0 0 1 0 -1 -1 -0 -1 0 0 0 1 0 -1 -0 -1 -1 2 2 2 4 5 8 8 8 10 11 11 15 13 13 13 14 13 13 12
-2 -2 -1 -2 -0 -0 0 0 0 0 0 0 -0 0 0 -0 -1 -0 1 2 1 0 -1 -1 -0 -1 1 2 2 -0 0 1 3 6 9 9 11 13 12 10 11 13 12 13 12
-3 -1 0 0 -1 -1 -2 -1 -1 -0 -0 -0 -0 0 0 -0 1 -0 1 1 1 1 0 -0 -1 -1 -2 -2 -2 -1 0 1 2 6 9 10 12 11 9 8 11 12 13 12 12
-3 -1 -2 -2 -1 -1 -1 -1 -1 -1 -1 -0 -0 0 -1 -2 -1 -1 0 1 1 1 1 -1 -3 -0 -0 -1 1 1 0 2 4 5 5 10 11 13 10 9 11 12 12 12 12
-3 -3 -4 -3 -2 -1 -0 -1 -1 -2 -2 -1 -1 -1 -0 -1 -1 -2 -1 -0 -0 1 0 0 -2 -2 -3 0 2 3 4 5 6 7 7 8 8 10 9 10 11 11 12 12 11
-4 -4 -4 -2 -1 -1 -1 -1 -2 -1 -1 -1 -1 -2 -1 -0 -1 -1 -1 -1 -0 -1 -1 -1 -2 -2 -1 2 2 2 3 4 6 7 8 8 9 10 10 10 11 11 11 12 11
Height
1532 1529 1526 1522 1519 1515 1512 1509 1506 1503 1500 1497 1495 1492 1489 1485 1481 1479 1473 1473 1474 1476 1478 1482 1485 1487 1488 1488 1489 1489 1483 1471 1464 1462 1459 1462 1463 1466 1469 1471 1469 1472 1475 1476 1474
1531 1528 1524 1521 1517 1514 1510 1507 1503 1500 1497 1494 1491 1488 1485 1481 1476 1467 1465 1463 1465 1470 1471 1476 1478 1483 1485 1483 1485 1482 1471 1461 1456 1456 1459 1461 1465 1465 1467 1469 1469 1470 1475 1476 1475
1531 1527 1523 1519 1516 1512 1507 1504 1500 1496 1493 1490 1488 1485 1482 1479 1475 1460 1457 1457 1459 1460 1467 1472 1475 1477 1478 1479 1476 1471 1460 1454 1456 1461 1462 1461 1462 1465 1465 1464 1463 1464 1468 1472 1474
1530 1526 1522 1517 1514 1509 1505 1501 1496 1492 1489 1486 1483 1481 1480 1483 1475 1454 1454 1456 1456 1458 1463 1467 1469 1469 1467 1463 1466 1464 1458 1457 1455 1457 1460 1460 1462 1460 1459 1459 1460 1462 1464 1465 1470
1529 1525 1521 1516 1511 1507 1502 1496 1491 1487 1484 1480 1478 1478 1478 1479 1456 1456 1453 1453 1454 1455 1457 1459 1460 1461 1456 1453 1456 1454 1455 1454 1457 1457 1458 1460 1457 1456 1452 1456 1457 1459 1461 1463 1464
1528 1524 1519 1515 1509 1504 1497 1491 1486 1482 1477 1474 1473 1473 1474 1467 1448 1448 1449 1450 1451 1451 1453 1455 1455 1455 1449 1448 1448 1443 1448 1450 1451 1452 1454 1454 1454 1453 1445 1451 1452 1454 1456 1458 1460
1527 1521 1516 1512 1506 1500 1492 1486 1480 1475 1469 1466 1464 1462 1463 1440 1445 1446 1444 1445 1447 1448 1448 1449 1450 1450 1448 1448 1444 1442 1443 1443 1440 1446 1447 1450 1443 1436 1441 1443 1445 1447 1450 1452 1454
1524 1518 1513 1508 1503 1496 1489 1480 1474 1468 1462 1459 1458 1460 1448 1441 1441 1436 1437 1438 1440 1440 1441 1444 1446 1445 1443 1444 1438 1439 1438 1432 1423 1436 1441 1448 1418 1420 1429 1434 1434 1439 1442 1445 1448
1523 1516 1510 1504 1498 1492 1485 1477 1469 1463 1459 1458 1458 1457 1444 1438 1438 1438 1436 1433 1433 1434 1434 1437 1438 1436 1442 1440 1440 1432 1418 1416 1421 1423 1429 1436 1418 1418 1422 1424 1425 1430 1434 1438 1441
1520 1514 1508 1502 1496 1490 1482 1473 1465 1462 1459 1457 1455 1457 1440 1438 1437 1436 1434 1431 1430 1429 1429 1427 1429 1427 1429 1429 1416 1402 1411 1408 1403 1413 1418 1419 1411 1413 1415 1418 1417 1420 1424 1428 1433
1520 1513 1506 1500 1494 1488 1480 1474 1470 1463 1462 1461 1453 1447 1442 1434 1432 1429 1430 1427 1425 1425 1418 1418 1419 1400 1389 1386 1372 1387 1396 1395 1397 1403 1410 1410 1405 1407 1411 1415 1413 1413 1415 1419 1425
1517 1510 1505 1499 1492 1487 1485 1482 1482 1481 1458 1455 1448 1444 1444 1442 1429 1428 1426 1426 1420 1412 1415 1413 1401 1385 1377 1387 1400 1398 1397 1389 1388 1395 1403 1405 1398 1401 1402 1401 1404 1407 1409 1411 1417
1515 1509 1504 1498 1492 1490 1486 1485 1481 1478 1468 1443 1442 1442 1443 1439 1430 1425 1426 1421 1416 1409 1403 1394 1385 1390 1393 1389 1391 1391 1395 1389 1391 1392 1402 1405 1397 1396 1394 1394 1396 1398 1402 1405 1410
1514 1509 1504 1497 1494 1490 1487 1484 1481 1478 1465 1437 1441 1442 1441 1435 1422 1425 1423 1424 1413 1399 1390 1390 1379 1380 1378 1378 1379 1380 1381 1394 1397 1403 1402 1406 1390 1381 1384 1381 1383 1388 1393 1396 1402
1512 1506 1501 1496 1494 1491 1489 1483 1480 1479 1459 1443 1445 1444 1439 1436 1426 1422 1419 1416 1412 1406 1394 1362 1367 1367 1370 1365 1367 1369 1382 1382 1388 1395 1397 1403 1400 1366 1370 1364 1362 1371 1379 1386 1393
1511 1506 1500 1496 1493 1491 1486 1481 1480 1473 1444 1444 1447 1441 1434 1428 1426 1420 1415 1413 1406 1395 1385 1369 1363 1361 1356 1356 1367 1368 1371 1374 1383 1388 1389 1378 1387 1357 1360 1356 1359 1365 1370 1376 1383
1510 1504 1498 1493 1492 1488 1485 1483 1474 1459 1444 1449 1450 1447 1436 1429 1427 1420 1411 1422 1421 1408 1389 1374 1361 1358 1362 1355 1357 1367 1370 1378 1379 1376 1367 1360 1371 1360 1348 1351 1354 1357 1362 1368 1375
1508 1502 1498 1494 1492 1488 1486 1478 1473 1452 1460 1462 1455 1445 1435 1435 1431 1423 1415 1419 1420 1420 1398 1395 1368 1351 1356 1352 1351 1343 1361 1359 1353 1348 1352 1345 1365 1348 1345 1349 1353 1358 1361 1362 1364
1506 1501 1498 1494 1490 1488 1486 1475 1463 1470 1471 1465 1455 1443 1439 1436 1434 1426 1427 1426 1425 1421 1422 1406 1375 1368 1357 1349 1347 1344 1353 1347 1357 1364 1348 1333 1337 1335 1340 1348 1350 1351 1354 1357 1359
1503 1499 1497 1494 1489 1486 1483 1473 1471 1475 1472 1465 1458 1450 1447 1443 1438 1431 1425 1426 1425 1422 1422 1410 1391 1359 1348 1347 1347 1343 1340 1361 1362 1352 1347 1331 1333 1335 1339 1341 1341 1345 1346 1347 1351
1505 1499 1495 1493 1488 1484 1478 1476 1476 1474 1472 1468 1460 1456 1453 1446 1442 1435 1431 1427 1427 1423 1418 1415 1403 1372 1362 1354 1357 1349 1344 1351 1346 1347 1347 1336 1330 1322 1333 1337 1345 1348 1347 1345 1347
1508 1500 1494 1492 1487 1484 1482 1479 1479 1472 1469 1464 1463 1458 1454 1449 1443 1437 1433 1432 1430 1429 1422 1413 1406 1396 1373 1368 1365 1353 1352 1343 1337 1341 1339 1338 1341 1328 1339 1347 1351 1350 1350 1350 1351
1506 1499 1494 1493 1487 1484 1482 1480 1474 1470 1467 1464 1461 1457 1454 1448 1445 1439 1433 1431 1430 1428 1425 1421 1407 1396 1374 1366 1371 1379 1378 1378 1366 1354 1339 1346 1341 1337 1344 1354 1356 1354 1352 1350 1352
1510 1503 1496 1491 1492 1491 1485 1477 1472 1470 1466 1464 1461 1456 1450 1447 1441 1437 1431 1429 1429 1428 1427 1426 1421 1416 1417 1409 1406 1395 1387 1383 1376 1354 1339 1338 1335 1342 1349 1354 1358 1353 1350 1350 1349
1509 1503 1503 1495 1489 1488 1485 1480 1473 1467 1468 1463 1458 1454 1454 1452 1444 1437 1432 1429 1427 1425 1425 1425 1424 1411 1408 1406 1398 1389 1385 1375 1366 1362 1359 1337 1339 1336 1346 1354 1355 1351 1350 1349 1348
1510 1508 1503 1497 1491 1485 1479 1476 1472 1470 1471 1462 1459 1457 1453 1449 1444 1440 1435 1431 1427 1424 1422 1421 1423 1416 1410 1394 1385 1376 1374 1366 1353 1351 1350 1349 1349 1347 1354 1353 1353 1352 1349 1348 1347
1508 1506 1503 1494 1489 1484 1477 1475 1474 1471 1464 1463 1460 1458 1452 1447 1444 1440 1437 1430 1424 1423 1422 1423 1424 1421 1401 1386 1381 1368 1368 1361 1354 1349 1344 1348 1348 1346 1347 1347 1346 1348 1346 1344 1345
Wind_Speed
20 20 21 21 22 22 22 23 23 22 23 23 22 23 23 24 26 25 32 29 21 17 16 12 16 16 12 12 11 8 7 11 18 14 13 7 9 14 8 11 15 9 10 4 18
21 21 23 23 24 25 26 26 26 25 25 24 23 21 22 25 28 36 33 31 25 23 23 23 22 19 18 17 10 13 10 15 11 12 7 6 8 11 11 13 19 18 12 5 13
20 21 23 24 25 27 27 28 28 27 26 25 25 23 21 22 24 14 11 9 13 19 24 23 20 22 23 16 20 11 16 16 11 11 11 12 13 12 14 16 18 18 19 15 15
23 24 25 27 28 29 29 29 30 29 28 27 25 21 18 11 9 9 10 9 13 17 24 26 26 28 18 20 25 14 17 21 7 14 15 14 16 17 21 21 15 8 15 16 18
21 25 27 27 29 30 32 32 33 32 27 23 22 16 12 10 32 21 23 15 15 22 31 32 34 31 22 17 23 24 18 20 24 21 18 17 20 21 18 22 22 19 13 14 20
26 27 29 29 30 32 34 35 37 32 28 27 27 19 14 19 27 21 15 12 15 24 29 31 24 35 20 23 20 10 24 26 20 21 22 20 22 25 16 27 22 22 24 20 19
23 26 28 30 31 33 37 39 36 32 30 28 26 20 24 40 17 14 11 17 20 23 31 32 31 27 21 21 27 29 23 17 22 25 13 13 22 30 31 24 22 29 29 28 26
27 29 29 29 31 34 38 40 36 32 26 22 13 10 16 11 19 26 28 32 22 28 33 32 32 33 30 22 16 16 24 23 22 23 23 13 24 14 32 33 33 28 25 29 31
29 28 29 29 32 36 37 39 35 24 18 14 6 10 15 8 10 12 14 24 26 23 28 33 32 37 26 21 18 19 24 30 21 15 20 21 21 22 18 25 32 32 31 29 30
28 28 29 30 31 33 35 38 22 10 9 6 7 6 14 9 16 20 17 15 22 21 26 33 24 17 21 17 24 34 30 24 22 23 21 23 29 16 10 22 26 25 30 30 31
29 29 30 31 29 28 31 30 23 5 30 14 22 29 40 35 34 26 20 20 17 20 25 25 19 25 37 40 43 18 28 25 24 23 20 23 26 23 23 26 24 23 28 29 31
29 29 29 29 29 21 22 18 13 13 18 28 31 30 21 17 29 24 16 22 17 23 25 24 26 38 36 29 24 29 25 26 16 20 17 21 26 21 22 23 26 28 29 28 28
29 27 28 29 26 15 21 12 12 19 10 16 4 3 1 27 29 24 16 15 21 28 28 31 36 32 32 31 26 28 28 29 24 16 16 19 24 25 26 24 28 30 32 31 31
29 28 29 30 14 21 14 14 17 16 6 5 4 4 10 31 10 29 11 9 6 24 35 23 37 32 32 36 33 30 28 23 22 16 13 14 14 20 26 28 26 31 33 32 32
29 28 28 24 20 15 16 18 20 5 7 8 8 13 31 26 20 17 27 7 14 19 15 22 24 31 32 33 36 30 21 25 25 25 17 10 8 16 19 22 21 22 33 33 33
30 28 28 20 14 11 15 22 10 5 5 4 22 23 28 27 25 23 24 14 9 16 19 22 25 12 33 32 29 26 23 19 23 18 17 28 16 17 19 19 19 17 25 27 32
29 28 24 15 10 14 19 18 6 6 19 14 25 24 22 20 22 18 19 10 11 10 17 16 10 27 17 23 25 22 22 11 11 12 15 22 16 19 5 7 14 19 24 26 31
29 24 19 10 12 16 18 12 8 11 16 20 18 24 17 17 20 20 16 9 15 14 10 10 11 18 12 23 16 31 20 10 14 14 15 15 10 15 17 16 22 21 17 18 27
29 21 8 11 15 19 14 7 8 10 14 15 21 16 19 20 16 19 13 10 7 14 9 6 8 20 17 26 24 19 22 25 12 1 5 12 16 13 10 12 14 15 20 23 25
22 20 7 15 20 13 6 9 8 10 15 17 19 13 21 19 18 18 11 10 14 15 14 5 11 13 26 4 13 11 18 9 6 4 9 11 15 11 7 7 5 9 13 20 24
16 13 7 18 16 9 5 7 14 17 16 9 18 19 17 16 19 18 12 10 16 18 17 8 6 14 17 7 12 5 3 6 4 6 3 10 12 9 10 9 9 6 8 4 12
14 7 14 23 12 5 7 10 17 15 20 14 8 9 11 18 13 16 18 12 16 18 15 9 7 12 21 15 13 5 8 11 6 9 11 7 5 5 14 9 6 6 7 8 6
14 10 9 13 6 9 16 15 21 14 14 13 12 12 15 17 11 14 14 13 18 16 12 11 7 11 10 6 13 9 10 16 12 4 12 11 5 13 12 9 13 6 4 8 9
8 4 13 11 9 9 15 17 18 15 18 10 12 15 13 17 17 15 19 13 19 13 15 11 9 8 7 11 14 12 19 15 9 4 7 14 15 12 5 6 14 13 6 10 17
4 4 8 6 13 16 14 16 18 16 9 12 8 13 16 13 20 17 20 18 17 6 7 7 9 13 14 19 21 18 16 17 11 10 4 9 15 15 9 7 10 13 12 20 16
6 6 5 22 15 16 13 16 16 15 6 13 15 16 17 16 17 18 20 19 19 15 12 11 6 16 15 18 15 15 13 12 5 7 8 9 12 9 2 7 9 20 19 17 10
10 11 7 12 12 11 12 16 19 20 10 15 17 15 17 17 20 26 27 27 22 19 16 12 6 6 6 12 15 3 3 10 11 14 8 5 9 11 9 12 10 17 18 11 7
Wind_Direction
360 355 350 347 344 339 336 333 332 328 322 320 318 316 311 305 303 296 276 266 258 235 227 209 204 204 206 212 210 212 237 244 241 241 246 246 232 244 238 269 253 252 265 359 178
354 352 345 343 341 337 335 331 328 325 322 322 317 314 314 311 310 288 287 275 254 234 213 202 200 199 208 211 206 207 231 237 243 244 240 223 217 240 229 240 242 239 240 208 204
346 348 342 342 339 336 332 328 326 322 319 317 312 309 308 319 312 284 291 259 231 223 209 210 210 205 218 213 209 217 239 234 236 245 241 237 236 233 237 243 244 233 232 210 211
345 343 339 339 338 335 331 329 324 319 318 314 311 305 299 315 281 252 281 251 232 217 198 204 206 201 212 215 216 246 236 244 238 229 228 232 244 251 239 240 244 235 238 221 210
344 337 337 336 335 332 329 327 324 324 318 308 306 306 301 255 255 270 281 267 240 201 201 203 206 205 216 220 222 227 247 238 248 240 235 243 243 247 250 239 237 233 221 223 212
347 339 332 331 331 330 327 325 323 324 308 300 293 282 258 245 271 270 251 243 211 205 211 208 215 211 232 242 227 237 237 244 237 236 240 242 247 238 238 235 235 228 223 225 221
334 328 325 329 329 328 327 328 328 324 308 297 288 266 244 245 269 275 277 248 232 223 218 216 214 214 233 257 254 242 249 237 235 239 221 223 250 237 235 231 232 231 229 226 222
337 336 332 328 329 327 330 327 334 320 310 303 295 245 251 268 277 271 268 256 247 235 229 224 226 234 240 244 256 243 237 243 228 222 228 215 252 226 229 224 229 228 224 224 224
338 339 338 334 331 334 332 332 332 321 314 323 278 228 274 299 311 312 285 256 243 239 230 228 230 233 234 239 249 241 235 227 234 217 219 204 257 243 226 214 227 228 228 226 225
339 340 337 333 336 337 333 338 342 355 337 295 249 244 255 317 320 310 308 285 245 236 229 222 220 219 220 214 220 227 228 235 235 213 214 221 237 248 200 226 231 227 227 226 224
340 344 342 337 340 341 343 348 360 268 325 268 278 279 292 305 309 308 283 296 257 237 235 217 219 214 214 213 220 228 219 229 235 238 205 224 241 231 237 240 243 236 228 227 222
340 341 341 337 339 343 348 1 5 327 302 292 275 277 292 327 310 321 300 252 254 238 236 240 226 228 229 226 221 234 247 246 239 212 222 236 247 245 242 240 238 234 230 230 225
340 340 337 335 341 346 342 342 332 337 292 306 305 32 328 333 313 303 319 315 263 256 243 238 234 236 241 242 233 225 223 234 242 235 221 235 251 248 249 241 241 236 235 229 231
335 339 336 334 347 327 337 327 327 331 284 280 64 277 314 332 297 321 15 313 273 245 245 250 243 237 231 239 234 239 219 230 237 237 234 196 251 230 235 237 232 231 232 227 226
339 338 335 335 314 324 317 326 324 314 285 48 10 325 328 328 299 313 322 315 301 303 265 229 228 230 235 240 236 231 229 219 235 227 235 220 241 246 250 244 227 220 223 224 219
341 340 337 334 324 307 320 327 312 245 268 26 351 342 336 336 342 320 324 11 313 320 330 251 266 257 230 233 236 247 243 244 232 233 231 230 222 263 235 229 232 226 226 219 217
341 337 336 330 314 325 330 324 279 255 360 351 339 333 316 356 347 346 331 59 34 340 335 306 264 245 243 232 233 222 224 225 220 215 231 216 216 231 227 253 250 240 236 221 217
342 338 330 329 335 341 334 296 285 335 351 333 327 314 333 4 345 342 350 18 27 4 316 345 318 221 248 234 220 206 208 215 201 210 228 183 217 230 227 253 246 248 250 250 218
347 339 328 323 324 330 313 299 332 7 326 321 318 325 337 349 345 345 18 31 20 23 358 306 286 311 275 243 228 217 214 226 257 134 251 215 231 250 252 263 248 240 241 233 233
341 330 298 333 329 319 289 292 345 340 320 319 311 329 325 332 342 340 354 25 358 348 352 296 296 298 338 0 266 210 210 188 205 231 223 202 224 205 176 210 213 252 251 244 236
344 329 325 335 329 289 317 343 327 322 325 317 314 315 321 327 334 332 335 345 4 341 335 312 275 301 332 12 340 250 198 193 239 206 251 221 220 205 235 71 52 355 18 317 215
343 324 330 343 309 343 335 338 319 305 316 311 299 307 314 323 320 323 332 348 349 344 336 349 293 324 303 329 342 241 308 221 222 198 226 266 260 135 95 77 20 3 10 11 3
334 306 317 347 351 340 333 326 313 314 308 309 300 303 310 313 319 317 315 348 338 343 338 347 352 326 347 9 19 18 336 339 319 322 225 205 192 138 101 32 335 337 2 18 357
329 313 345 326 342 335 330 322 320 315 308 303 297 304 315 326 316 317 316 334 332 317 335 346 326 312 305 303 303 302 306 319 314 237 198 219 220 166 173 279 293 311 295 337 336
334 330 337 309 322 323 315 309 316 326 299 304 300 314 330 320 317 319 325 326 322 7 319 360 318 311 313 287 284 281 294 298 298 276 250 239 225 250 153 196 262 310 304 315 323
311 317 314 294 299 300 317 316 331 339 321 300 307 324 317 310 318 319 320 314 311 304 314 329 306 318 299 289 270 294 298 281 223 230 263 276 283 324 321 262 244 295 295 304 307
313 305 302 294 305 306 308 319 315 314 319 308 311 312 307 318 320 306 300 291 285 288 291 301 304 305 277 329 309 283 347 353 359 22 340 300 351 349 275 283 280 287 298 303 305